Weather WX

World > North America > United States > Washington

Tonasket, Washington Regional Weather

Lat: 48.70N, Lon: 119.44W
Wx Zone: WAZ043
Feedback

Tonasket, WA Regional Weather

Expires:201906160100;;132774
ASUS46 KSEW 160010
RWRWA 

WASHINGTON REGIONAL WEATHER ROUNDUP
NATIONAL WEATHER SERVICE SEATTLE WA
500 PM PDT SAT JUN 15 2019

NOTE:"FAIR" INDICATES FEW OR NO CLOUDS BELOW 12,000 FEET WITH NO 
SIGNIFICANT WEATHER AND/OR OBSTRUCTIONS TO VISIBILITY.


WAZ026-027-041>044-520-521-160100-
EAST SLOPES
  
CITY           SKY/WX    TMP DP  RH WIND       PRES   REMARKS
OMAK           FAIR      83  46  27 N9        29.87S                  
6HR MIN TEMP:  83; 6HR MAX TEMP:  91;                                

WENATCHEE      FAIR      87  44  22 SE9       29.84F                  
6HR MIN TEMP:  74; 6HR MAX TEMP:  88;                                

ELLENSBURG     FAIR      84  44  24 NW22G30   29.89F                  
6HR MIN TEMP:  77; 6HR MAX TEMP:  89;                                

YAKIMA         FAIR      89  44  20 CALM      29.85F                  
6HR MIN TEMP:  77; 6HR MAX TEMP:  90;                                

SUNNYSIDE ARPT FAIR      87  43  21 CALM      29.84                   
6HR MIN TEMP:  74; 6HR MAX TEMP:  88;                                

YAKIMA TC      FAIR      87  40  18 W6        29.85F                  
6HR MIN TEMP:  77; 6HR MAX TEMP:  88;                                

$$


SKY/WX - Weather  TMP - Temperature  DP - Dew Point  RH - Relative Humidity
WIND - Wind Direction/Speed PRES - Barometric Pressure VSB - Visibility
WCI - Wind Chill Index E13G22 Wind - East Wind 13 mph/Gusts of 22 mph